EW9451 Weather Reports


Display with metric or nautical units.
time (UTC)temp
F
wind
direction
speed
MPH
gust
MPH
rain 1hr
in
rain 24hr
in
rain mn
in
humidity
%
barometer
mb
20260903131030 65 172 1.0 5.0 0.00 0.81 0.54 95 1006.5
20260903130529 65 148 2.0 5.0 0.00 0.81 0.54 95 1006.4
20260903130028 65 127 0.0 3.0 0.00 0.81 0.54 95 1006.5
20260903125528 65 149 0.0 6.0 0.00 0.81 0.54 95 1006.5
20260903125030 64 121 1.0 6.0 0.00 0.81 0.54 95 1006.5
20260903124527 64 96 2.0 4.0 0.00 0.81 0.54 95 1006.6
20260903124026 64 115 1.0 5.0 0.00 0.81 0.54 95 1006.7
20260903123525 64 128 2.0 6.0 0.00 0.81 0.54 96 1006.8
20260903123029 64 123 0.0 3.0 0.00 0.81 0.54 96 1006.8
20260903122626 64 120 0.0 3.0 0.00 0.81 0.54 96 1006.7
20260903122025 64 184 1.0 3.0 0.00 0.81 0.54 95 1006.7
20260903121523 64 131 1.0 2.0 0.00 0.81 0.54 95 1006.8
20260903121023 64 171 0.0 4.0 0.00 0.81 0.54 96 1006.9
20260903120524 64 188 0.0 4.0 0.00 0.81 0.54 96 1006.9
20260903120026 63 184 1.0 3.0 0.00 0.81 0.54 95 1006.9
20260903115522 63 146 0.0 2.0 0.00 0.81 0.54 95 1006.9
20260903115022 63 138 0.0 3.0 0.00 0.81 0.54 95 1007.0
20260903114522 63 157 1.0 3.0 0.00 0.81 0.54 96 1007.0
20260903114021 63 157 1.0 3.0 0.00 0.81 0.54 96 1007.0
20260903113524 63 161 0.0 4.0 0.00 0.81 0.54 96 1007.0
20260903113020 63 95 0.0 7.0 0.00 0.81 0.54 96 1007.0
20260903112520 63 160 2.0 8.0 0.00 0.81 0.54 95 1007.0
20260903112022 63 120 1.0 7.0 0.00 0.81 0.54 95 1007.0
20260903111519 63 140 0.0 2.0 0.00 0.81 0.54 95 1007.0
20260903111020 63 227 0.0 5.0 0.00 0.81 0.54 95 1007.0
20260903110518 63 215 0.0 6.0 0.00 0.81 0.54 96 1007.0
20260903110017 63 178 1.0 4.0 0.00 0.81 0.54 96 1006.9
20260903105518 63 156 0.0 5.0 0.00 0.81 0.54 96 1006.9
20260903105019 63 130 0.0 4.0 0.00 0.81 0.54 96 1006.8
20260903104517 63 143 1.0 4.0 0.00 0.81 0.54 96 1006.7
20260903104017 63 128 0.0 3.0 0.00 0.81 0.54 96 1006.6
20260903103516 63 144 0.0 4.0 0.00 0.81 0.54 96 1006.7
20260903103016 63 105 1.0 4.0 0.00 0.81 0.54 96 1006.7
20260903102516 63 134 0.0 5.0 0.00 0.81 0.54 96 1006.7
20260903102015 62 147 2.0 5.0 0.00 0.81 0.54 96 1006.6
20260903101515 62 124 1.0 7.0 0.00 0.81 0.54 96 1006.5
20260903101015 62 243 1.0 7.0 0.00 0.81 0.54 96 1006.6
20260903100516 62 185 0.0 4.0 0.00 0.81 0.54 96 1006.5
20260903100024 62 74 1.0 2.0 0.00 0.81 0.54 96 1006.5
20260903095515 62 99 0.0 3.0 0.00 0.81 0.54 96 1006.4
20260903095018 62 131 0.0 5.0 0.00 0.81 0.54 95 1006.4
20260903094514 62 137 1.0 5.0 0.00 0.81 0.54 95 1006.5
20260903094015 62 103 1.0 5.0 0.00 0.81 0.54 95 1006.5
20260903093516 62 105 0.0 8.0 0.00 0.81 0.54 95 1006.5
20260903093013 62 101 2.0 8.0 0.00 0.81 0.54 95 1006.3
20260903092512 62 135 1.0 5.0 0.00 0.81 0.54 96 1006.4
20260903092011 62 161 1.0 4.0 0.00 0.81 0.54 96 1006.5
20260903091511 62 101 1.0 4.0 0.00 0.81 0.54 96 1006.4
20260903091010 62 97 1.0 5.0 0.00 0.81 0.54 96 1006.3
20260903090510 62 165 2.0 4.0 0.00 0.81 0.54 96 1006.3
20260903090011 62 27 1.0 4.0 0.00 0.81 0.54 96 1006.3
20260903085511 62 116 1.0 7.0 0.00 0.81 0.54 96 1006.2
20260903085007 62 141 0.0 5.0 0.00 0.81 0.54 96 1006.4
20260903084506 62 137 2.0 10.0 0.00 0.81 0.54 95 1006.5
20260903084007 62 157 3.0 10.0 0.00 0.81 0.54 95 1006.5
20260903083505 62 137 0.0 6.0 0.00 0.81 0.54 95 1006.6
20260903083005 62 140 2.0 6.0 0.00 0.81 0.54 95 1006.7
20260903082504 62 94 2.0 6.0 0.00 0.81 0.54 95 1006.7
20260903082006 62 108 2.0 7.0 0.00 0.81 0.54 95 1006.8
20260903081506 62 139 2.0 7.0 0.00 0.81 0.54 95 1006.7
20260903081006 62 137 2.0 7.0 0.00 0.81 0.54 95 1006.8
20260903080503 62 76 1.0 7.0 0.01 0.81 0.54 95 1006.8
20260903080004 61 123 2.0 8.0 0.01 0.81 0.54 96 1006.8
20260903075504 61 155 1.0 9.0 0.01 0.81 0.54 96 1006.7
20260903075002 61 132 2.0 9.0 0.01 0.81 0.54 96 1006.7
20260903074501 61 178 2.0 5.0 0.01 0.81 0.54 96 1006.8
20260903074001 61 111 2.0 7.0 0.01 0.81 0.54 96 1006.9
20260903073502 61 197 2.0 6.0 0.01 0.81 0.54 96 1006.9
20260903073001 61 96 0.0 6.0 0.02 0.81 0.54 96 1006.9
20260903072501 61 128 1.0 7.0 0.03 0.81 0.54 96 1006.9
20260903072001 61 136 1.0 7.0 0.05 0.81 0.54 96 1006.9
20260903071631 61 177 0.0 4.0 0.05 0.81 0.54 96 1006.8
20260903071100 61 120 0.0 7.0 0.08 0.81 0.54 96 1006.9
20260903070600 61 198 1.0 9.0 0.09 0.80 0.53 96 1006.9
20260903070105 61 143 2.0 9.0 0.09 0.80 0.53 96 1006.9
20260903065600 61 159 2.0 7.0 0.10 0.80 0.53 96 1007.0
20260903065101 61 146 2.0 6.0 0.10 0.80 0.53 96 1007.0
20260903064606 61 131 1.0 6.0 0.10 0.80 0.53 96 1006.9
20260903064058 61 119 0.0 8.0 0.11 0.80 0.53 96 1007.0
20260903063558 61 120 3.0 9.0 0.12 0.80 0.53 96 1006.8
20260903063104 61 123 3.0 9.0 0.12 0.79 0.52 96 1007.0
20260903062557 61 170 3.0 8.0 0.13 0.79 0.52 96 1006.9
20260903062057 61 150 1.0 4.0 0.12 0.77 0.50 96 1007.0
20260903061603 61 154 0.0 7.0 0.12 0.76 0.49 96 1006.9
20260903061056 61 134 1.0 7.0 0.10 0.73 0.46 96 1007.1
20260903060556 61 149 0.0 8.0 0.08 0.71 0.44 96 1007.1
20260903060056 61 49 0.0 10.0 0.08 0.71 0.44 96 1007.0
20260903055555 61 181 2.0 10.0 0.09 0.70 0.43 96 1007.1
20260903055053 61 104 2.0 6.0 0.10 0.70 0.43 96 1007.4
20260903054552 62 142 0.0 6.0 0.11 0.70 0.43 96 1007.3
20260903054051 62 88 1.0 5.0 0.12 0.69 0.42 96 1007.5
20260903053551 62 115 0.0 4.0 0.15 0.68 0.41 96 1007.6
20260903053051 62 121 1.0 5.0 0.17 0.67 0.40 96 1007.8
20260903052550 62 111 1.0 5.0 0.20 0.66 0.39 96 1008.0
20260903052051 62 145 2.0 5.0 0.23 0.65 0.38 96 1008.2
20260903051550 62 281 0.0 3.0 0.26 0.64 0.37 96 1008.3
20260903051049 62 317 0.0 3.0 0.30 0.63 0.36 96 1008.2
20260903050550 62 298 1.0 4.0 0.33 0.63 0.36 96 1008.0
20260903050105 62 36 0.0 4.0 0.35 0.62 0.35 96 1007.7
20260903045548 62 153 0.0 3.0 0.36 0.61 0.34 95 1007.6
20260903045048 62 130 0.0 8.0 0.38 0.60 0.33 95 1007.6
20260903044558 62 25 2.0 8.0 0.38 0.59 0.32 95 1007.6
20260903044047 62 110 2.0 7.0 0.40 0.56 0.28 95 1007.6
20260903043545 62 105 1.0 3.0 0.40 0.53 0.26 95 1008.2
20260903043046 62 173 0.0 3.0 0.39 0.50 0.23 95 1008.3
20260903042544 62 121 1.0 7.0 0.35 0.46 0.19 95 1008.5
20260903042045 62 116 2.0 8.0 0.31 0.42 0.15 95 1008.5
20260903041543 62 113 2.0 8.0 0.27 0.37 0.10 95 1008.4
20260903041041 62 188 0.0 2.0 0.24 0.33 0.06 95 1008.7
20260903040540 62 111 0.0 3.0 0.22 0.30 0.03 95 1008.6
20260903040049 62 144 1.0 4.0 0.19 0.27 0.00 95 1008.5
20260903035538 62 141 1.0 7.0 0.18 0.25 0.25 94 1008.7
20260903035039 62 290 3.0 7.0 0.16 0.22 0.22 95 1008.6
20260903034538 62 136 0.0 7.0 0.15 0.21 0.21 94 1008.4
20260903034036 62 60 2.0 7.0 0.09 0.15 0.15 94 1008.3
20260903033535 62 197 2.0 7.0 0.06 0.12 0.12 94 1008.4
20260903033036 63 193 1.0 6.0 0.05 0.11 0.11 94 1008.2
20260903032535 63 107 2.0 5.0 0.06 0.11 0.11 94 1008.2
20260903032037 63 168 1.0 5.0 0.06 0.10 0.10 94 1008.1
20260903031538 63 102 1.0 6.0 0.08 0.10 0.10 94 1007.9
20260903031035 63 105 2.0 8.0 0.08 0.09 0.09 94 1008.2
20260903030535 63 46 2.0 8.0 0.07 0.08 0.08 93 1008.3
20260903030033 63 92 1.0 5.0 0.08 0.08 0.08 93 1008.3
20260903025532 63 103 1.0 8.0 0.07 0.07 0.07 93 1008.6
20260903025031 63 126 1.0 9.0 0.06 0.06 0.06 93 1008.8
20260903024530 63 107 1.0 7.0 0.06 0.06 0.06 93 1008.8
20260903024030 64 74 2.0 7.0 0.06 0.06 0.06 92 1008.8
20260903023529 64 155 1.0 5.0 0.06 0.06 0.06 92 1008.8
20260903023037 64 77 1.0 9.0 0.05 0.05 0.05 91 1008.7
20260903022628 64 88 2.0 9.0 0.05 0.05 0.05 91 1008.8
20260903022028 65 86 2.0 7.0 0.03 0.03 0.03 90 1008.8
20260903021527 65 44 1.0 11.0 0.02 0.02 0.02 89 1008.7
20260903021027 65 138 1.0 11.0 0.01 0.01 0.01 88 1008.8
20260903020527 66 117 1.0 9.0 0.01 0.01 0.01 87 1008.9
20260903020031 66 132 1.0 10.0 0.00 0.00 0.00 86 1009.0
20260903015527 66 83 2.0 10.0 0.00 0.00 0.00 84 1008.9
20260903015027 66 150 1.0 12.0 0.00 0.00 0.00 84 1009.1
20260903014526 66 92 4.0 12.0 0.00 0.00 0.00 83 1009.2
20260903014029 66 119 4.0 10.0 0.00 0.00 0.00 83 1009.2
20260903013526 66 140 2.0 11.0 0.00 0.00 0.00 84 1009.3
20260903013027 66 197 5.0 11.0 0.00 0.00 0.00 83 1009.4
20260903012525 66 127 4.0 11.0 0.00 0.00 0.00 83 1009.5
20260903012025 66 184 3.0 13.0 0.00 0.00 0.00 84 1009.4
20260903011526 66 102 4.0 16.0 0.00 0.00 0.00 83 1009.3
20260903011027 66 79 4.0 16.0 0.00 0.00 0.00 83 1009.3
20260903010524 66 110 3.0 14.0 0.00 0.00 0.00 83 1009.3
20260903010025 66 183 2.0 14.0 0.00 0.00 0.00 83 1009.2
20260903005525 66 121 2.0 14.0 0.00 0.00 0.00 83 1009.3
20260903005025 66 90 5.0 14.0 0.00 0.00 0.00 83 1009.3
20260903004532 66 117 5.0 14.0 0.00 0.00 0.00 83 1009.2
20260903004028 66 96 3.0 8.0 0.00 0.00 0.00 84 1008.8
20260903003524 66 191 2.0 10.0 0.00 0.00 0.00 84 1008.7
20260903003023 66 122 2.0 10.0 0.00 0.00 0.00 84 1008.7
20260903002525 66 147 2.0 12.0 0.00 0.00 0.00 83 1008.8
20260903002023 66 148 3.0 12.0 0.00 0.00 0.00 84 1008.8
20260903001526 66 188 3.0 11.0 0.00 0.00 0.00 84 1008.7
20260903001022 66 120 3.0 9.0 0.00 0.00 0.00 83 1008.9
20260903000522 66 125 2.0 13.0 0.00 0.00 0.00 83 1008.8
20260903000039 66 106 4.0 13.0 0.00 0.00 0.00 83 1008.9
20260902235522 66 54 5.0 10.0 0.00 0.00 0.00 83 1009.0
20260902235021 66 119 3.0 10.0 0.00 0.00 0.00 84 1009.0
20260902234526 66 180 2.0 8.0 0.00 0.00 0.00 83 1008.9
20260902234021 66 92 2.0 17.0 0.00 0.00 0.00 83 1008.8
20260902233521 66 106 2.0 17.0 0.00 0.00 0.00 84 1009.0
20260902233020 66 105 2.0 6.0 0.00 0.00 0.00 84 1009.1
20260902232522 66 118 2.0 11.0 0.00 0.00 0.00 83 1009.1
20260902232020 66 59 2.0 11.0 0.00 0.00 0.00 83 1009.2
20260902231519 66 115 3.0 11.0 0.00 0.00 0.00 83 1009.4
20260902231017 66 109 3.0 10.0 0.00 0.00 0.00 83 1009.6
20260902230516 66 112 3.0 9.0 0.00 0.00 0.00 83 1009.6
20260902230122 66 121 2.0 12.0 0.00 0.00 0.00 83 1009.7
20260902225615 66 80 3.0 12.0 0.00 0.00 0.00 83 1009.8
20260902225018 67 355 4.0 11.0 0.00 0.00 0.00 83 1009.9
20260902224513 67 108 3.0 12.0 0.00 0.00 0.00 83 1010.0
20260902224014 67 85 4.0 19.0 0.00 0.00 0.00 82 1010.1
20260902223513 67 88 5.0 13.0 0.00 0.00 0.00 82 1010.1
20260902223013 67 92 3.0 12.0 0.00 0.00 0.00 82 1009.7
20260902222512 67 113 3.0 14.0 0.00 0.00 0.00 82 1009.8
20260902222012 67 321 5.0 14.0 0.00 0.00 0.00 82 1010.0
20260902221516 67 95 3.0 15.0 0.00 0.00 0.00 82 1010.3
20260902221010 67 63 4.0 15.0 0.00 0.00 0.00 82 1010.4
20260902220510 68 203 4.0 16.0 0.00 0.00 0.00 81 1010.5
20260902220010 68 110 3.0 11.0 0.00 0.00 0.00 82 1010.5
20260902215509 68 186 4.0 11.0 0.00 0.00 0.00 81 1010.4
20260902215009 68 29 3.0 14.0 0.00 0.00 0.00 82 1010.5
20260902214515 68 42 4.0 14.0 0.00 0.00 0.00 81 1010.5
20260902214009 68 149 2.0 13.0 0.00 0.00 0.00 81 1010.6
20260902213507 68 182 4.0 13.0 0.00 0.00 0.00 80 1010.6
20260902213007 69 111 3.0 11.0 0.00 0.00 0.00 80 1010.6
20260902212508 69 111 3.0 11.0 0.00 0.00 0.00 80 1010.8
20260902212011 69 118 3.0 14.0 0.00 0.00 0.00 80 1011.0
20260902211509 69 137 6.0 14.0 0.00 0.00 0.00 79 1011.0
20260902211007 69 196 2.0 14.0 0.00 0.00 0.00 80 1011.1
20260902210508 69 150 2.0 14.0 0.00 0.00 0.00 79 1011.1
20260902210007 69 194 5.0 17.0 0.00 0.00 0.00 79 1011.1
20260902205506 69 196 7.0 17.0 0.00 0.00 0.00 79 1010.9
20260902205006 69 169 3.0 17.0 0.00 0.00 0.00 79 1010.7
20260902204507 69 153 4.0 16.0 0.00 0.00 0.00 78 1010.8
20260902204006 70 54 4.0 12.0 0.00 0.00 0.00 78 1010.8
20260902203504 70 132 3.0 11.0 0.00 0.00 0.00 79 1010.9
20260902203003 70 98 4.0 11.0 0.00 0.00 0.00 77 1011.1
20260902202503 70 147 2.0 10.0 0.00 0.00 0.00 77 1011.4
20260902202003 71 86 4.0 11.0 0.00 0.00 0.00 76 1011.7
20260902201503 71 108 2.0 10.0 0.00 0.00 0.00 77 1011.6
20260902201002 72 164 2.0 11.0 0.00 0.00 0.00 76 1011.6
20260902200503 72 142 2.0 11.0 0.00 0.00 0.00 77 1011.5
20260902200004 72 17 3.0 9.0 0.00 0.00 0.00 76 1011.3
20260902195501 72 161 2.0 9.0 0.00 0.00 0.00 78 1011.3
20260902195001 72 132 3.0 8.0 0.00 0.00 0.00 78 1011.2
20260902194501 72 161 1.0 11.0 0.00 0.00 0.00 79 1011.2
20260902194001 72 161 5.0 11.0 0.00 0.00 0.00 78 1011.2
20260902193601 72 132 3.0 10.0 0.00 0.00 0.00 78 1011.2
20260902193103 72 166 5.0 12.0 0.00 0.00 0.00 75 1011.3
20260902192600 72 103 4.0 12.0 0.00 0.00 0.00 74 1011.5
20260902192059 73 104 3.0 12.0 0.00 0.00 0.00 74 1011.5
20260902191559 73 117 3.0 11.0 0.00 0.00 0.00 73 1011.6
20260902191058 73 162 4.0 10.0 0.00 0.00 0.00 76 1011.6
20260902190559 72 141 4.0 10.0 0.00 0.00 0.00 75 1011.5
20260902190058 72 171 3.0 9.0 0.00 0.00 0.00 78 1011.6
20260902185557 72 133 3.0 14.0 0.00 0.00 0.00 75 1011.7
20260902185057 72 130 6.0 14.0 0.00 0.00 0.00 74 1011.8
20260902184557 72 148 3.0 13.0 0.00 0.00 0.00 75 1011.9
20260902184056 72 135 3.0 12.0 0.00 0.00 0.00 74 1011.8
20260902183557 72 167 3.0 15.0 0.00 0.00 0.00 75 1011.9
20260902183056 73 145 4.0 12.0 0.00 0.00 0.00 72 1012.1
20260902182555 73 161 1.0 9.0 0.00 0.00 0.00 75 1011.9
20260902182057 73 141 2.0 11.0 0.00 0.00 0.00 75 1011.9
20260902181557 73 138 4.0 11.0 0.00 0.00 0.00 76 1011.7
20260902181054 73 298 3.0 16.0 0.00 0.00 0.00 73 1011.7
20260902180554 73 94 2.0 16.0 0.00 0.00 0.00 72 1011.8
20260902180056 74 80 3.0 12.0 0.00 0.00 0.00 72 1011.8
20260902175554 74 145 4.0 13.0 0.00 0.00 0.00 70 1012.1
20260902175054 75 142 5.0 13.0 0.00 0.00 0.00 72 1012.0
20260902174556 75 91 3.0 11.0 0.00 0.00 0.00 74 1011.8
20260902174052 75 178 3.0 11.0 0.00 0.00 0.00 76 1011.9
20260902173548 74 163 3.0 11.0 0.00 0.00 0.00 76 1012.0
20260902173048 74 128 3.0 10.0 0.00 0.00 0.00 75 1012.1
20260902172548 74 237 3.0 9.0 0.00 0.00 0.00 73 1012.1
20260902172049 73 98 2.0 12.0 0.00 0.00 0.00 73 1012.1
20260902171547 73 162 3.0 11.0 0.00 0.00 0.00 76 1012.1
20260902171046 73 164 4.0 11.0 0.00 0.00 0.00 72 1012.2
20260902170546 73 146 4.0 12.0 0.00 0.00 0.00 74 1012.1
20260902170045 73 140 5.0 11.0 0.00 0.00 0.00 73 1012.2
20260902165546 73 61 4.0 11.0 0.00 0.00 0.00 74 1012.1
20260902165045 73 119 2.0 12.0 0.00 0.00 0.00 79 1012.2
20260902164548 72 149 1.0 10.0 0.00 0.00 0.00 79 1012.3
20260902164042 72 270 4.0 10.0 0.00 0.00 0.00 76 1012.3
20260902163541 72 171 2.0 9.0 0.00 0.00 0.00 76 1012.2
20260902163041 72 153 3.0 9.0 0.00 0.00 0.00 79 1012.4
20260902162541 72 79 2.0 8.0 0.00 0.00 0.00 78 1012.3
20260902162040 71 119 1.0 7.0 0.00 0.00 0.00 79 1012.4
20260902161538 71 102 2.0 9.0 0.00 0.00 0.00 81 1012.6
20260902161040 70 162 3.0 9.0 0.00 0.00 0.00 78 1012.8
20260902160538 70 143 2.0 12.0 0.00 0.00 0.00 80 1012.8
20260902160037 70 175 4.0 12.0 0.00 0.00 0.00 76 1012.9
20260902155537 70 136 4.0 11.0 0.00 0.00 0.00 77 1013.0
20260902155037 70 150 2.0 11.0 0.00 0.00 0.00 77 1013.0
20260902154536 70 163 2.0 10.0 0.00 0.00 0.00 78 1013.0
20260902154036 70 113 3.0 10.0 0.00 0.00 0.00 79 1013.0
20260902153536 70 103 3.0 9.0 0.00 0.00 0.00 78 1013.1
20260902153034 70 128 4.0 9.0 0.00 0.00 0.00 79 1013.0
20260902152533 70 101 1.0 12.0 0.00 0.00 0.00 81 1012.8
20260902152034 70 155 2.0 7.0 0.00 0.00 0.00 81 1012.8
20260902151532 69 142 3.0 13.0 0.00 0.00 0.00 80 1012.7
20260902151031 69 133 5.0 13.0 0.00 0.00 0.00 78 1012.9
20260902150532 69 21 3.0 11.0 0.00 0.00 0.00 81 1012.9
20260902150029 69 130 2.0 12.0 0.00 0.00 0.00 79 1013.0
20260902145529 68 167 2.0 7.0 0.00 0.00 0.00 80 1013.0
20260902145027 68 70 1.0 6.0 0.00 0.00 0.00 82 1013.1
20260902144529 67 78 2.0 10.0 0.00 0.00 0.00 81 1013.1
20260902144025 67 126 1.0 10.0 0.00 0.00 0.00 82 1013.3
20260902143525 67 310 2.0 8.0 0.00 0.00 0.00 82 1013.5
20260902143025 67 96 2.0 8.0 0.00 0.00 0.00 83 1013.5
20260902142526 67 113 1.0 9.0 0.00 0.00 0.00 81 1013.4
20260902142025 67 191 2.0 9.0 0.00 0.00 0.00 82 1013.5
20260902141531 67 109 2.0 8.0 0.00 0.00 0.00 81 1013.4
20260902141021 67 63 3.0 10.0 0.00 0.00 0.00 81 1013.2
20260902140520 67 175 2.0 10.0 0.00 0.00 0.00 82 1013.0
20260902140019 67 95 2.0 10.0 0.00 0.00 0.00 83 1012.9
20260902135518 67 109 1.0 7.0 0.00 0.00 0.00 83 1012.8
20260902135018 66 47 1.0 8.0 0.00 0.00 0.00 84 1012.8
20260902134517 66 107 2.0 8.0 0.00 0.00 0.00 83 1012.9
20260902134016 66 111 2.0 7.0 0.00 0.00 0.00 83 1012.9
20260902133519 66 58 1.0 7.0 0.00 0.00 0.00 86 1013.0
20260902133020 66 149 2.0 6.0 0.00 0.00 0.00 85 1012.8
20260902132516 65 108 1.0 6.0 0.00 0.00 0.00 83 1012.6
20260902132014 65 104 2.0 5.0 0.00 0.00 0.00 83 1012.6
20260902131514 66 111 2.0 6.0 0.00 0.00 0.00 83 1012.6